Temp
9 9 9 10 10 11 11 12 13 13 14 14 14 15 15 16 17 18 17 18 18 17 17 17 17 16 17 18 18 19 22 22 22 22 22 20 21 17 17 18 17 16 16 15 14
8 9 9 9 9 10 11 11 12 13 13 14 14 14 15 16 17 18 18 18 18 18 17 17 18 17 19 19 19 21 22 22 23 23 22 20 21 20 19 18 19 16 13 13 14
7 8 8 8 9 10 10 11 11 12 13 13 14 14 15 15 16 18 18 18 17 17 17 16 17 18 20 20 20 21 22 23 22 21 21 21 20 19 20 21 20 18 13 13 13
8 8 8 9 9 9 9 10 11 11 12 13 13 14 15 15 20 17 18 18 18 17 17 17 17 19 21 21 20 20 21 21 21 19 19 21 19 20 19 19 17 16 14 12 11
10 10 9 8 8 8 9 9 10 11 11 12 13 13 14 14 16 18 18 18 18 17 16 17 19 20 21 21 20 20 21 19 18 18 18 18 19 20 19 16 16 15 13 11 11
10 10 9 10 9 8 8 9 10 10 11 11 12 12 11 15 17 17 17 18 18 17 17 17 19 19 20 21 21 20 19 19 19 19 19 20 19 19 17 15 15 14 13 12 11
10 10 10 9 9 8 8 9 10 10 10 11 12 12 11 14 17 17 17 17 17 17 18 18 18 19 20 21 19 20 21 21 20 20 21 20 21 21 18 15 15 15 12 13 13
8 9 10 10 9 8 7 8 10 10 10 11 11 12 12 16 17 17 17 17 17 18 17 17 18 18 19 19 20 21 21 21 22 21 19 19 21 21 18 17 15 16 15 14 14
6 8 9 9 9 8 7 8 10 10 10 11 11 11 14 15 16 17 17 17 17 18 17 17 17 19 19 21 21 22 21 21 21 21 21 20 21 21 18 17 16 16 16 15 13
4 6 8 8 8 8 7 8 10 10 10 10 10 11 14 17 16 16 17 17 17 17 17 17 19 21 21 21 20 21 21 21 21 21 21 21 22 22 18 18 18 17 16 15 14
2 4 5 7 7 8 7 7 9 9 7 13 13 14 15 15 16 16 17 17 18 18 20 19 20 20 22 21 21 22 21 21 22 22 21 22 22 22 19 18 18 17 16 15 14
2 3 4 5 7 7 6 8 8 8 10 11 12 12 14 13 15 16 17 18 19 20 20 20 20 22 21 21 20 21 20 21 21 21 21 22 22 21 19 18 20 19 17 16 16
2 2 3 4 6 7 6 7 8 8 10 12 12 13 13 13 15 17 17 19 20 20 20 20 21 20 20 20 20 21 20 20 20 21 21 20 22 22 21 19 19 19 19 18 17
2 2 3 3 5 6 6 7 8 8 12 15 13 14 13 15 16 17 17 19 20 20 21 21 21 20 20 20 21 20 21 20 20 20 21 20 21 22 22 21 20 19 19 19 18
2 2 2 2 5 6 6 7 9 8 13 17 14 13 14 16 18 17 17 18 20 20 20 20 20 19 19 20 20 21 19 20 20 20 20 21 21 23 22 22 23 21 20 19 19
2 2 2 2 4 6 7 7 8 11 12 16 14 14 14 15 17 17 17 18 20 21 20 22 19 20 21 20 20 20 19 19 20 20 19 20 20 23 23 23 23 23 21 20 19
2 2 2 3 4 5 6 7 10 11 16 16 15 15 16 16 17 18 19 18 19 18 19 20 20 20 19 20 19 20 20 19 18 19 19 20 20 22 23 23 23 22 21 20 20
2 2 2 2 3 4 6 7 10 15 15 16 16 15 16 18 18 18 19 19 20 20 20 19 18 20 21 21 21 20 21 19 18 18 19 18 20 22 23 22 22 20 20 19 19
2 1 2 2 3 4 6 7 11 14 15 15 15 15 15 17 19 18 19 19 20 20 19 19 20 20 20 20 21 19 19 20 18 16 17 20 21 23 23 22 21 22 20 20 19
1 1 1 3 3 3 5 9 12 15 15 15 15 16 15 16 17 18 18 19 20 20 21 20 19 20 19 19 19 20 21 18 19 17 17 20 20 21 22 22 22 22 22 20 18
0 1 2 3 3 2 5 8 12 14 14 14 15 14 16 16 17 18 18 18 20 19 21 21 20 18 18 19 20 18 19 19 20 19 18 18 20 22 22 22 22 22 21 21 20
0 1 2 3 2 3 5 10 12 14 13 14 13 14 14 15 16 18 19 19 18 20 18 20 20 18 19 20 20 21 21 20 19 18 18 17 19 23 23 22 21 21 20 20 19
0 1 2 3 3 3 7 9 11 12 14 13 13 14 14 15 15 17 18 19 18 20 20 20 19 18 18 18 18 19 20 20 20 18 18 17 19 21 21 21 21 20 21 19 18
1 1 2 2 5 6 6 8 9 11 13 13 13 14 13 14 15 16 17 15 16 19 19 18 20 19 18 20 21 19 19 19 20 18 19 19 20 22 22 22 22 21 20 19 18
1 2 3 2 3 7 7 9 9 10 12 12 13 13 14 14 14 15 16 15 15 14 17 19 19 19 20 21 21 20 20 20 19 20 19 20 21 22 22 22 22 20 18 18 18
0 3 5 5 4 6 8 9 10 11 12 12 12 14 14 13 14 13 15 16 17 15 17 18 19 19 18 19 19 19 20 20 20 20 20 20 20 22 21 19 19 18 17 16 14
0 3 6 7 6 6 8 8 9 12 12 13 13 13 12 13 13 13 13 14 15 16 16 17 18 17 17 17 17 14 17 19 19 19 20 19 21 22 21 20 19 16 15 14 12
Height
1552 1552 1551 1550 1549 1547 1545 1543 1541 1539 1536 1533 1531 1529 1526 1522 1520 1517 1517 1518 1516 1516 1517 1518 1518 1519 1519 1520 1519 1518 1508 1503 1502 1503 1500 1505 1503 1506 1505 1502 1502 1503 1503 1504 1504
1549 1548 1547 1547 1546 1545 1543 1541 1539 1536 1534 1532 1529 1526 1524 1520 1517 1515 1516 1515 1514 1515 1517 1519 1519 1518 1517 1517 1517 1513 1504 1499 1500 1500 1500 1504 1503 1503 1504 1503 1501 1503 1503 1503 1504
1544 1543 1543 1543 1542 1542 1540 1538 1537 1534 1531 1530 1527 1525 1522 1519 1515 1515 1514 1514 1514 1515 1516 1517 1518 1518 1515 1514 1514 1509 1505 1500 1502 1503 1504 1503 1503 1504 1501 1496 1498 1502 1504 1505 1506
1538 1538 1538 1538 1537 1536 1536 1535 1534 1532 1529 1527 1525 1522 1520 1518 1515 1513 1513 1513 1513 1513 1515 1516 1517 1516 1511 1509 1510 1508 1504 1504 1504 1506 1504 1502 1504 1502 1502 1501 1503 1503 1506 1507 1509
1533 1533 1533 1533 1532 1532 1531 1531 1531 1529 1527 1525 1523 1520 1518 1519 1514 1511 1512 1512 1511 1512 1514 1515 1515 1513 1508 1508 1509 1508 1504 1505 1505 1505 1505 1504 1502 1502 1501 1504 1504 1505 1508 1508 1509
1529 1529 1528 1528 1528 1527 1527 1526 1527 1526 1524 1523 1521 1519 1518 1516 1508 1509 1510 1511 1511 1511 1513 1513 1513 1512 1510 1508 1507 1507 1506 1504 1504 1503 1502 1502 1501 1501 1503 1504 1506 1508 1510 1510 1511
1525 1525 1524 1524 1523 1523 1522 1522 1523 1523 1521 1520 1518 1516 1514 1509 1505 1507 1508 1510 1511 1511 1513 1512 1512 1512 1510 1506 1508 1506 1502 1502 1501 1500 1499 1500 1495 1494 1500 1503 1506 1509 1510 1513 1514
1520 1520 1520 1520 1520 1518 1518 1517 1519 1519 1517 1516 1515 1514 1508 1502 1502 1503 1506 1508 1509 1510 1511 1511 1510 1511 1510 1508 1505 1501 1499 1494 1496 1499 1501 1501 1490 1493 1499 1502 1506 1509 1512 1514 1515
1516 1516 1515 1515 1515 1515 1513 1514 1515 1514 1513 1512 1512 1512 1503 1497 1497 1499 1502 1506 1508 1508 1509 1509 1510 1509 1509 1504 1500 1496 1494 1497 1495 1496 1496 1498 1490 1493 1499 1501 1504 1508 1510 1514 1517
1512 1512 1513 1512 1512 1511 1511 1510 1511 1510 1509 1509 1508 1513 1498 1496 1494 1496 1499 1504 1506 1507 1509 1509 1507 1503 1500 1498 1500 1494 1496 1494 1494 1493 1495 1491 1488 1488 1496 1498 1501 1505 1509 1513 1515
1507 1508 1509 1509 1509 1508 1510 1511 1511 1509 1504 1500 1496 1493 1493 1493 1492 1495 1497 1500 1504 1505 1501 1503 1501 1498 1491 1493 1492 1489 1492 1493 1488 1490 1492 1485 1485 1483 1492 1496 1498 1502 1506 1510 1513
1502 1504 1505 1507 1507 1506 1510 1511 1510 1509 1500 1494 1490 1489 1488 1490 1492 1492 1494 1498 1498 1496 1498 1501 1497 1489 1494 1495 1497 1494 1494 1491 1488 1489 1490 1482 1482 1482 1488 1493 1493 1497 1502 1505 1510
1499 1501 1503 1503 1505 1505 1508 1508 1507 1507 1503 1485 1481 1481 1482 1486 1487 1487 1490 1490 1491 1492 1494 1491 1489 1492 1494 1494 1495 1493 1494 1492 1492 1487 1484 1486 1479 1480 1484 1488 1490 1493 1496 1501 1504
1495 1498 1499 1501 1506 1504 1505 1504 1504 1507 1498 1474 1473 1470 1473 1478 1480 1481 1483 1487 1488 1487 1489 1489 1487 1493 1494 1492 1491 1493 1488 1491 1490 1492 1488 1486 1483 1476 1477 1481 1485 1488 1490 1493 1498
1489 1495 1496 1497 1500 1502 1504 1502 1503 1507 1491 1461 1467 1466 1467 1469 1465 1471 1478 1482 1479 1483 1489 1487 1487 1491 1491 1487 1489 1488 1491 1491 1490 1489 1487 1484 1484 1467 1474 1473 1473 1480 1484 1487 1491
1483 1490 1493 1493 1495 1498 1500 1501 1503 1503 1483 1457 1461 1461 1465 1465 1465 1466 1471 1478 1478 1480 1482 1477 1486 1486 1483 1487 1488 1490 1491 1491 1490 1488 1494 1483 1486 1468 1465 1468 1469 1471 1475 1480 1484
1478 1483 1488 1491 1492 1496 1497 1500 1499 1485 1459 1453 1454 1458 1457 1456 1460 1460 1461 1467 1468 1481 1481 1479 1480 1482 1485 1485 1489 1488 1488 1494 1502 1497 1494 1485 1487 1472 1465 1468 1469 1470 1473 1475 1477
1472 1478 1481 1484 1488 1490 1494 1497 1482 1450 1455 1450 1450 1455 1453 1450 1451 1455 1457 1461 1461 1464 1469 1477 1485 1478 1478 1478 1479 1482 1481 1488 1501 1499 1489 1489 1485 1466 1465 1467 1469 1470 1470 1470 1471
1467 1472 1474 1478 1483 1486 1488 1481 1454 1450 1451 1452 1451 1452 1455 1447 1445 1450 1451 1451 1453 1456 1467 1470 1471 1471 1475 1476 1477 1484 1486 1479 1490 1500 1497 1477 1471 1462 1464 1466 1466 1466 1466 1466 1467
1460 1466 1465 1473 1479 1480 1476 1455 1448 1446 1449 1449 1448 1441 1450 1446 1447 1445 1449 1445 1449 1454 1456 1463 1473 1469 1475 1477 1479 1476 1475 1488 1485 1501 1499 1477 1478 1469 1464 1464 1464 1463 1463 1464 1464
1455 1459 1455 1466 1475 1474 1455 1440 1444 1444 1448 1447 1444 1444 1441 1442 1441 1441 1440 1444 1444 1452 1455 1457 1461 1475 1474 1473 1468 1479 1477 1477 1476 1480 1488 1490 1476 1459 1460 1461 1462 1462 1464 1464 1464
1445 1445 1446 1456 1466 1458 1444 1433 1441 1439 1445 1445 1446 1444 1441 1442 1439 1436 1434 1436 1439 1444 1452 1453 1458 1467 1466 1464 1466 1463 1463 1467 1478 1482 1481 1484 1478 1457 1458 1461 1462 1462 1463 1464 1464
1431 1439 1443 1448 1447 1451 1439 1440 1438 1438 1437 1442 1442 1443 1441 1439 1442 1433 1434 1435 1437 1440 1442 1449 1456 1467 1468 1470 1468 1465 1463 1463 1467 1474 1475 1485 1475 1458 1459 1460 1460 1460 1460 1461 1463
1423 1428 1433 1435 1431 1433 1434 1435 1435 1437 1437 1439 1438 1440 1441 1438 1434 1433 1434 1435 1436 1437 1440 1446 1445 1452 1459 1453 1451 1462 1460 1461 1462 1471 1469 1465 1460 1453 1452 1452 1454 1455 1456 1458 1459
1403 1400 1399 1407 1418 1415 1427 1425 1430 1429 1433 1436 1436 1437 1438 1438 1435 1433 1432 1435 1438 1439 1440 1441 1443 1445 1445 1444 1445 1449 1450 1452 1458 1457 1462 1457 1452 1447 1448 1448 1449 1454 1454 1455 1457
1382 1383 1393 1396 1406 1405 1406 1411 1417 1422 1420 1424 1428 1432 1435 1437 1436 1435 1433 1433 1430 1440 1438 1437 1440 1440 1447 1444 1448 1450 1446 1446 1449 1448 1448 1450 1448 1445 1447 1451 1452 1453 1453 1454 1455
1371 1381 1384 1385 1394 1402 1397 1403 1410 1417 1419 1422 1427 1430 1434 1432 1437 1441 1441 1439 1437 1436 1436 1437 1436 1444 1446 1448 1451 1463 1449 1443 1444 1446 1446 1447 1441 1440 1443 1445 1447 1451 1452 1453 1454
Wind_Speed
19 18 18 17 16 16 16 16 17 18 19 19 19 20 21 22 20 9 1 2 4 9 9 8 8 7 5 5 4 4 6 4 3 4 2 1 4 2 2 2 3 3 3 1 14
17 18 18 19 18 17 17 17 18 18 19 20 20 20 21 22 20 4 5 2 4 9 8 8 8 9 6 6 4 8 6 3 3 4 8 4 7 3 4 3 4 2 2 6 13
21 23 21 21 19 19 18 18 18 19 20 20 20 20 20 20 13 5 6 2 4 8 8 7 6 8 8 5 7 4 10 5 8 10 11 8 7 3 5 5 4 3 8 11 13
25 23 22 21 21 19 19 18 18 19 19 21 21 21 20 15 5 5 6 4 6 10 8 7 7 8 8 7 5 8 8 11 10 8 7 7 2 3 5 5 6 2 10 11 10
25 27 26 23 22 21 21 19 18 19 20 21 21 22 20 8 10 12 9 5 7 10 9 8 9 6 7 3 4 8 6 5 4 2 3 2 2 4 3 5 8 10 10 9 9
21 23 25 27 25 20 23 22 19 19 19 21 21 21 15 11 7 7 10 7 9 9 8 8 3 3 4 4 5 1 2 1 4 5 3 5 2 4 6 7 10 11 8 7 7
20 21 21 24 25 23 20 24 20 20 20 20 21 21 18 19 10 10 12 11 8 8 8 7 4 3 2 4 1 3 6 5 4 3 1 5 10 4 5 8 10 10 9 6 6
20 19 21 20 21 23 22 24 21 21 21 21 21 17 13 13 11 12 15 13 10 9 9 6 5 5 5 1 4 6 5 7 8 5 1 4 6 5 7 12 11 10 10 9 11
21 20 19 19 18 19 19 22 18 21 22 21 16 9 12 11 11 14 17 13 11 10 9 6 6 5 5 10 8 7 5 3 4 7 1 5 9 6 7 10 12 11 13 14 15
19 20 19 17 16 16 18 17 16 19 21 16 13 7 15 4 6 9 16 15 7 9 5 8 8 9 9 9 11 7 8 6 8 5 7 10 10 3 8 11 12 12 15 16 19
17 18 17 15 13 13 11 9 7 6 9 12 5 6 2 4 6 10 14 16 12 12 12 9 8 11 9 11 7 7 5 5 6 2 7 6 10 2 9 12 13 13 16 18 19
19 15 16 13 11 9 8 5 5 5 12 19 25 27 23 9 4 11 16 17 15 15 9 7 11 6 2 6 7 8 7 7 3 1 8 7 7 4 10 12 13 16 17 19 20
20 15 15 11 10 11 10 8 11 8 8 12 19 19 17 20 13 16 20 21 18 17 15 13 2 3 8 8 9 10 9 5 7 9 4 7 7 6 7 11 12 14 15 17 20
21 17 14 9 8 10 10 7 7 3 5 6 8 10 16 13 12 22 23 20 8 19 15 12 7 7 8 10 9 9 4 10 8 6 2 2 2 4 7 10 13 17 19 20 20
22 20 16 14 7 6 5 2 4 6 6 7 5 6 10 23 13 24 24 15 18 12 10 11 10 11 11 13 10 4 1 5 6 8 5 6 7 7 5 8 13 18 22 23 24
30 20 19 16 19 13 15 7 9 4 10 4 7 9 10 18 8 20 20 14 15 12 11 11 3 5 2 4 10 7 5 3 3 4 6 2 5 2 1 4 2 3 19 25 26
31 23 25 17 17 16 15 3 6 9 1 7 6 8 13 13 12 16 24 22 16 16 17 15 13 5 6 8 6 9 7 5 5 5 3 4 5 7 5 2 7 8 7 12 26
30 25 27 24 20 17 16 4 13 7 12 2 3 8 11 16 14 15 24 22 23 19 12 16 15 14 11 10 7 14 10 4 6 5 4 3 5 2 1 5 7 7 9 9 15
27 27 29 28 27 19 13 13 13 12 6 5 6 7 9 14 9 14 22 25 24 22 15 16 15 5 7 4 9 6 8 1 1 2 2 4 5 11 3 4 1 3 3 2 7
29 29 31 31 28 25 10 26 17 15 6 6 9 10 12 14 12 16 19 19 25 25 20 7 13 8 8 6 3 6 10 5 4 4 6 5 5 5 1 5 1 2 6 4 1
27 16 20 34 27 19 14 25 26 16 10 6 10 3 6 10 19 16 13 5 25 21 21 14 9 7 7 11 12 6 8 4 2 3 4 3 4 2 4 2 2 1 2 3 2
29 6 20 41 17 10 19 29 16 28 15 6 3 4 3 7 14 18 19 13 27 26 23 18 9 9 13 4 5 9 12 14 7 8 4 4 8 9 10 5 6 6 7 5 3
23 13 20 40 12 14 26 30 28 15 28 9 7 6 1 4 6 17 11 12 16 20 21 16 10 10 11 7 5 8 11 11 7 2 11 8 7 3 5 7 10 11 6 8 7
20 7 13 32 39 30 26 25 30 31 20 31 5 9 5 4 7 1 9 4 16 24 19 24 14 18 14 12 10 14 13 14 14 9 11 12 16 12 13 13 12 10 7 7 7
25 11 18 14 19 28 29 22 28 26 34 22 21 13 11 4 3 6 5 3 5 6 11 13 18 17 17 15 13 16 16 17 18 17 16 13 15 13 14 13 13 6 5 5 6
20 11 33 16 39 32 30 30 29 33 24 27 18 23 16 5 4 4 5 2 3 5 9 9 13 12 13 11 13 15 17 17 18 16 12 17 17 13 17 8 8 6 4 2 2
38 32 31 22 27 22 24 32 30 29 33 31 25 15 12 18 13 7 5 4 4 1 8 6 10 7 13 5 5 7 15 15 14 12 14 15 15 13 11 13 12 7 4 4 5
Wind_Direction
283 289 298 304 307 313 317 321 323 322 321 321 323 325 328 329 331 330 223 223 181 171 162 160 162 169 175 197 184 200 250 258 242 244 33 327 267 252 274 207 212 242 264 161 182
275 281 281 291 299 305 311 316 319 321 321 320 321 324 329 329 332 257 203 161 151 169 182 184 182 179 196 193 201 242 271 348 328 297 297 324 279 190 225 234 222 219 179 173 177
268 270 276 278 284 295 303 308 314 317 318 319 320 322 327 332 329 195 190 198 193 183 188 207 194 197 223 199 203 207 266 348 298 301 285 291 270 242 269 247 350 275 184 178 178
263 269 273 275 277 280 291 297 304 310 313 317 320 320 324 335 325 211 205 236 215 200 198 201 193 211 238 225 199 257 265 293 294 319 285 280 311 267 296 2 319 133 165 170 182
273 270 268 269 273 281 278 286 295 303 309 312 318 318 327 307 271 240 220 222 195 188 199 198 198 227 239 256 240 253 314 303 287 241 275 260 297 322 48 48 112 125 142 157 177
279 277 274 272 270 273 286 278 282 294 300 307 313 314 318 277 271 233 205 187 177 176 199 188 204 251 259 265 273 68 3 165 175 177 188 273 263 294 107 123 128 127 145 161 178
275 279 280 276 272 269 272 278 276 285 293 299 306 308 295 268 260 224 196 181 173 179 198 207 220 249 301 239 237 249 251 185 164 173 312 283 235 246 143 151 147 144 155 157 156
270 271 277 283 275 271 272 277 278 281 287 294 299 298 265 269 237 228 207 199 196 199 205 220 225 262 250 218 229 251 239 248 131 182 150 249 70 86 164 167 162 160 159 155 135
275 268 273 279 283 274 273 279 281 279 284 291 293 272 268 258 241 218 207 201 216 214 215 226 202 246 218 236 227 204 273 275 199 205 227 245 322 95 170 186 173 170 171 168 161
278 275 272 276 282 278 280 291 285 285 280 277 255 264 246 216 180 184 200 198 184 176 179 202 208 232 222 229 233 205 219 203 284 145 234 289 285 138 185 192 186 182 182 177 181
267 276 277 275 275 276 296 317 294 272 245 226 209 230 270 252 198 195 195 185 191 204 217 200 227 227 241 227 314 268 274 276 293 100 282 284 289 332 186 197 187 192 189 191 193
271 270 272 275 265 253 274 270 275 294 294 262 250 249 242 271 289 208 186 183 192 206 197 203 228 242 211 206 237 236 247 263 254 99 306 311 302 137 176 201 201 193 199 199 195
264 259 271 261 251 240 252 256 261 290 268 269 234 240 234 215 227 213 186 197 198 207 208 230 145 200 207 191 222 239 265 282 284 320 255 289 220 198 187 205 207 212 206 204 201
260 245 255 244 250 245 251 253 255 199 274 242 209 233 196 180 224 208 196 188 195 207 211 231 219 217 225 246 236 250 248 266 265 274 246 340 263 165 197 210 216 212 210 210 207
251 244 235 210 204 204 193 173 185 156 271 131 165 169 179 183 144 194 191 197 201 184 196 206 190 201 226 243 211 242 159 244 254 254 279 181 256 119 189 236 225 219 218 215 210
242 238 231 225 220 185 164 99 145 214 243 201 159 180 167 200 213 155 176 199 210 192 218 219 155 220 248 190 202 133 166 155 196 233 239 129 273 278 182 325 323 263 222 224 218
235 240 228 214 218 201 175 161 192 228 55 180 195 180 196 182 198 188 178 187 186 189 205 200 210 182 187 177 185 204 219 182 190 206 252 113 256 275 301 251 298 294 280 240 226
228 234 224 220 211 204 199 190 226 221 223 2 181 182 199 173 199 198 187 192 206 202 198 204 203 206 187 228 213 207 217 239 223 196 188 163 245 132 6 295 293 277 281 270 223
224 226 224 220 215 196 198 203 216 212 210 230 161 181 211 198 189 185 200 201 197 201 201 202 211 155 210 193 210 169 214 350 104 26 256 252 228 253 211 295 278 315 298 245 210
218 221 225 211 213 219 215 223 215 217 223 215 228 206 198 196 197 198 190 211 203 201 210 199 213 195 148 165 159 254 140 179 214 226 243 204 254 269 179 131 116 26 18 21 75
206 218 215 203 206 224 214 214 219 201 223 219 228 235 231 190 207 202 192 183 200 196 208 210 228 158 177 204 192 170 198 219 253 255 256 267 243 213 214 269 234 217 313 344 360
195 212 188 187 187 228 224 213 211 219 216 223 247 254 248 213 209 212 212 217 198 186 192 194 212 206 206 133 261 264 224 205 220 200 230 281 276 249 251 286 251 253 251 264 268
189 199 187 180 198 221 233 224 224 216 218 211 212 223 236 251 222 214 214 202 186 190 197 179 210 208 213 196 188 219 209 222 232 256 238 247 265 158 196 243 247 251 250 239 237
176 170 171 200 212 204 222 224 216 223 231 224 237 229 252 255 231 211 220 182 189 205 202 176 207 217 226 220 207 214 221 213 222 232 250 243 269 268 250 254 261 231 228 236 236
188 195 177 189 205 208 211 207 214 206 210 217 220 222 210 240 234 202 226 147 165 179 189 200 218 222 236 240 245 238 242 224 227 238 249 252 260 267 278 277 257 244 256 245 235
180 188 189 187 202 208 197 216 210 212 193 210 220 209 222 238 5 122 10 189 176 172 181 197 221 216 220 227 231 241 243 246 228 242 250 261 268 282 280 273 244 263 273 226 179
198 198 185 206 196 209 209 201 217 209 219 211 212 211 211 233 254 352 351 333 324 326 200 198 201 197 229 208 214 257 236 225 222 225 233 257 272 285 264 249 244 241 216 175 137